EW5544 Weather Reports


time (UTC)temp
F
wind
direction
speed
knots
gust
knots
rain 1hr
in
rain 24hr
in
rain mn
in
humidity
%
barometer
mb
20260503211504 57 133 0.0 4.3 0.00 0.00 0.00 78 1017.8
20260503210005 58 122 2.6 7.8 0.00 0.00 0.00 77 1017.6
20260503204504 58 123 3.5 6.1 0.00 0.00 0.00 76 1017.5
20260503203004 58 136 2.6 7.0 0.00 0.00 0.00 73 1017.4
20260503201503 59 150 2.6 6.1 0.00 0.00 0.00 69 1017.3
20260503200003 60 112 1.7 5.2 0.00 0.00 0.00 64 1017.2
20260503194502 61 167 0.9 5.2 0.00 0.00 0.00 62 1017.2
20260503193009 61 151 1.7 5.2 0.00 0.00 0.00 62 1017.1
20260503191503 62 194 2.6 6.1 0.00 0.00 0.00 62 1017.0
20260503190003 62 114 2.6 5.2 0.00 0.00 0.00 64 1016.8
20260503184503 62 133 1.7 3.5 0.00 0.00 0.00 64 1016.7
20260503183102 63 166 1.7 4.3 0.00 0.00 0.00 62 1016.5
20260503181602 64 146 2.6 7.8 0.00 0.00 0.00 61 1016.5
20260503180058 65 198 2.6 5.2 0.00 0.00 0.00 60 1016.4
20260503174616 66 163 0.9 4.3 0.00 0.00 0.00 60 1016.4
20260503173103 67 205 2.6 4.3 0.00 0.00 0.00 58 1016.3
20260503171558 69 297 0.0 2.6 0.00 0.00 0.00 53 1016.1
20260503081606 65 162 0.9 2.6 0.00 0.00 0.00 63 1019.7
20260503071547 60 38 2.6 4.3 0.00 0.00 0.00 70 1020.0
20260503054532 54 131 0.0 1.7 0.00 0.00 0.00 83 1020.2
20260503053024 53 131 0.0 2.6 0.00 0.00 0.00 84 1020.0
20260503051524 52 119 1.7 3.5 0.00 0.00 0.00 85 1019.9
20260503050025 51 114 1.7 3.5 0.00 0.00 0.00 87 1019.9
20260503044522 51 95 1.7 5.2 0.00 0.00 0.00 86 1019.9
20260503041553 51 82 1.7 5.2 0.00 0.00 0.00 87 1019.7
20260503040059 50 126 1.7 3.5 0.00 0.00 0.00 87 1019.7
20260503034603 50 105 0.9 2.6 0.00 0.00 0.00 85 1019.7
20260503033053 51 98 1.7 3.5 0.00 0.00 0.00 85 1019.7
20260503031548 51 105 1.7 5.2 0.00 0.00 0.00 84 1019.6
20260503024551 51 110 1.7 3.5 0.00 0.00 0.00 83 1019.7
20260503023047 51 108 1.7 5.2 0.00 0.00 0.00 82 1019.6
20260503021545 51 105 2.6 3.5 0.00 0.00 0.00 81 1019.7
20260503014542 51 111 1.7 3.5 0.00 0.00 0.00 79 1019.8
20260503013040 51 97 0.9 3.5 0.00 0.00 0.00 77 1019.9
20260503011538 52 122 2.6 5.2 0.00 0.00 0.00 76 1020.0
20260503004541 53 101 2.6 5.2 0.00 0.00 0.00 73 1020.1
20260503003049 53 88 2.6 6.1 0.00 0.00 0.00 72 1020.3
20260503001558 53 126 2.6 5.2 0.00 0.00 0.00 72 1020.4
20260502234536 53 121 3.5 6.1 0.00 0.00 0.00 70 1020.5
20260502233033 54 100 3.5 6.1 0.00 0.00 0.00 69 1020.7
20260502231531 54 104 1.7 5.2 0.00 0.00 0.00 69 1020.8
20260502224527 53 103 0.9 2.6 0.00 0.00 0.00 69 1020.9
20260502223027 54 123 1.7 3.5 0.00 0.00 0.00 67 1021.0
20260502221527 54 126 1.7 3.5 0.00 0.00 0.00 65 1021.0
20260502214524 53 132 0.9 2.6 0.00 0.00 0.00 66 1020.9
20260502213024 54 86 0.9 1.7 0.00 0.00 0.00 63 1020.8